| time (UTC) | temp C | wind direction | speed KPH | gust KPH | rain 1hr cm | rain 24hr cm | rain mn cm | humidity % | barometer mb |
| 20260507182537 | 19 | 263 | 9.7 | 16.1 | 0.00 | 0.00 | 0.00 | 82 | 1014.6 |
| 20260507181537 | 18 | 213 | 9.7 | 16.1 | 0.00 | 0.00 | 0.00 | 82 | 1014.6 |
| 20260507180537 | 18 | 258 | 14.5 | 14.5 | 0.00 | 0.00 | 0.00 | 82 | 1014.6 |
| 20260507172537 | 18 | 263 | 6.4 | 9.7 | 0.00 | 0.00 | 0.00 | 83 | 1014.9 |
| 20260507171537 | 18 | 253 | 6.4 | 9.7 | 0.00 | 0.00 | 0.00 | 83 | 1014.9 |
| 20260507170537 | 18 | 226 | 4.8 | 8.0 | 0.00 | 0.00 | 0.00 | 85 | 1014.9 |
| 20260507164537 | 17 | 210 | 3.2 | 8.0 | 0.00 | 0.00 | 0.00 | 87 | 1014.9 |
| 20260507162537 | 17 | 231 | 1.6 | 4.8 | 0.00 | 0.00 | 0.00 | 88 | 1015.0 |
| 20260507161539 | 17 | 231 | 3.2 | 4.8 | 0.00 | 0.00 | 0.00 | 88 | 1014.9 |
| 20260507160537 | 17 | 250 | 1.6 | 4.8 | 0.00 | 0.00 | 0.00 | 88 | 1015.0 |
| 20260507155537 | 17 | 219 | 3.2 | 6.4 | 0.00 | 0.00 | 0.00 | 89 | 1015.0 |
| 20260507154537 | 16 | 219 | 4.8 | 6.4 | 0.00 | 0.00 | 0.00 | 89 | 1015.1 |
| 20260507153537 | 16 | 205 | 3.2 | 6.4 | 0.00 | 0.00 | 0.00 | 90 | 1015.1 |
| 20260507152537 | 16 | 92 | 3.2 | 4.8 | 0.00 | 0.00 | 0.00 | 90 | 1015.1 |
| 20260507151537 | 16 | 92 | 1.6 | 4.8 | 0.00 | 0.00 | 0.00 | 91 | 1015.1 |
| 20260507145537 | 14 | 92 | 1.6 | 4.8 | 0.00 | 0.00 | 0.00 | 90 | 1015.0 |
| 20260507144538 | 14 | 76 | 1.6 | 4.8 | 0.00 | 0.00 | 0.00 | 90 | 1015.0 |
| 20260507143538 | 13 | 51 | 3.2 | 4.8 | 0.00 | 0.00 | 0.00 | 90 | 1014.8 |
| 20260507142538 | 13 | 74 | 3.2 | 8.0 | 0.00 | 0.00 | 0.00 | 90 | 1014.7 |
| 20260507141537 | 13 | 59 | 4.8 | 6.4 | 0.00 | 0.00 | 0.00 | 90 | 1014.6 |
| 20260507135537 | 13 | 71 | 6.4 | 8.0 | 0.00 | 0.00 | 0.00 | 90 | 1014.6 |
| 20260507134537 | 13 | 50 | 4.8 | 6.4 | 0.00 | 0.00 | 0.00 | 90 | 1014.6 |
| 20260507133538 | 13 | 62 | 4.8 | 6.4 | 0.00 | 0.00 | 0.00 | 90 | 1014.4 |
| 20260507132538 | 13 | 61 | 3.2 | 6.4 | 0.00 | 0.00 | 0.00 | 90 | 1014.2 |
| 20260507131538 | 13 | 58 | 1.6 | 6.4 | 0.00 | 0.00 | 0.00 | 90 | 1014.1 |
| 20260507130537 | 13 | 55 | 3.2 | 6.4 | 0.00 | 0.00 | 0.00 | 90 | 1014.1 |
| 20260507125537 | 13 | 59 | 3.2 | 8.0 | 0.00 | 0.00 | 0.00 | 90 | 1014.0 |
| 20260507124538 | 13 | 54 | 3.2 | 8.0 | 0.00 | 0.00 | 0.00 | 89 | 1014.0 |
| 20260507123537 | 13 | 77 | 6.4 | 8.0 | 0.00 | 0.00 | 0.00 | 89 | 1013.9 |
| 20260507122538 | 13 | 69 | 3.2 | 8.0 | 0.00 | 0.00 | 0.00 | 89 | 1013.9 |
| 20260507121537 | 13 | 78 | 4.8 | 8.0 | 0.00 | 0.00 | 0.00 | 89 | 1014.0 |
| 20260507120538 | 13 | 78 | 6.4 | 8.0 | 0.00 | 0.00 | 0.00 | 92 | 1014.0 |
| 20260507115537 | 13 | 64 | 3.2 | 9.7 | 0.00 | 0.00 | 0.00 | 89 | 1013.9 |
| 20260507112537 | 13 | 82 | 6.4 | 8.0 | 0.00 | 0.00 | 0.00 | 89 | 1013.8 |
| 20260507111538 | 13 | 103 | 4.8 | 8.0 | 0.00 | 0.00 | 0.00 | 89 | 1013.9 |
| 20260507110538 | 13 | 44 | 3.2 | 6.4 | 0.00 | 0.00 | 0.00 | 89 | 1013.9 |
| 20260507105538 | 13 | 65 | 4.8 | 8.0 | 0.00 | 0.00 | 0.00 | 89 | 1014.1 |
| 20260507104538 | 13 | 82 | 4.8 | 8.0 | 0.00 | 0.00 | 0.00 | 89 | 1014.0 |
| 20260507103538 | 13 | 35 | 4.8 | 8.0 | 0.00 | 0.00 | 0.00 | 89 | 1014.2 |
| 20260507102538 | 13 | 47 | 3.2 | 8.0 | 0.00 | 0.00 | 0.00 | 89 | 1014.2 |
| 20260507101537 | 14 | 58 | 3.2 | 8.0 | 0.00 | 0.00 | 0.00 | 89 | 1014.2 |
| 20260507100538 | 14 | 81 | 4.8 | 4.8 | 0.00 | 0.00 | 0.00 | 88 | 1014.3 |
| 20260507095538 | 14 | 95 | 4.8 | 9.7 | 0.00 | 0.00 | 0.00 | 88 | 1014.3 |
| 20260507094538 | 14 | 71 | 1.6 | 9.7 | 0.00 | 0.00 | 0.00 | 88 | 1014.3 |
| 20260507093538 | 14 | 68 | 6.4 | 8.0 | 0.00 | 0.00 | 0.00 | 88 | 1014.4 |
| 20260507092538 | 14 | 74 | 1.6 | 6.4 | 0.00 | 0.00 | 0.00 | 88 | 1014.6 |
| 20260507090538 | 14 | 67 | 3.2 | 4.8 | 0.00 | 0.00 | 0.00 | 88 | 1014.7 |
| 20260507085537 | 14 | 67 | 0.0 | 6.4 | 0.00 | 0.00 | 0.00 | 88 | 1014.8 |
| 20260507084538 | 14 | 46 | 0.0 | 6.4 | 0.00 | 0.00 | 0.00 | 87 | 1014.9 |
| 20260507082538 | 14 | 36 | 4.8 | 6.4 | 0.00 | 0.00 | 0.00 | 87 | 1015.1 |
| 20260507080538 | 15 | 17 | 4.8 | 6.4 | 0.00 | 0.00 | 0.00 | 86 | 1015.2 |
| 20260507075537 | 15 | 5 | 3.2 | 6.4 | 0.00 | 0.00 | 0.00 | 86 | 1015.2 |
| 20260507074538 | 15 | 16 | 1.6 | 4.8 | 0.00 | 0.00 | 0.00 | 86 | 1015.2 |
| 20260507073538 | 15 | 65 | 3.2 | 4.8 | 0.00 | 0.00 | 0.00 | 86 | 1015.3 |
| 20260507071537 | 15 | 31 | 1.6 | 4.8 | 0.00 | 0.00 | 0.00 | 85 | 1015.2 |
| 20260507070538 | 15 | 31 | 3.2 | 4.8 | 0.00 | 0.00 | 0.00 | 85 | 1015.3 |
| 20260507065538 | 16 | 31 | 1.6 | 4.8 | 0.00 | 0.00 | 0.00 | 85 | 1015.4 |
| 20260507064538 | 16 | 31 | 1.6 | 4.8 | 0.00 | 0.00 | 0.00 | 85 | 1015.3 |
| 20260507063538 | 16 | 31 | 3.2 | 4.8 | 0.00 | 0.00 | 0.00 | 84 | 1015.3 |
| 20260507062538 | 16 | 31 | 3.2 | 4.8 | 0.00 | 0.00 | 0.00 | 85 | 1015.4 |
| 20260507061538 | 16 | 326 | 4.8 | 4.8 | 0.00 | 0.00 | 0.00 | 84 | 1015.4 |
| 20260507060538 | 16 | 326 | 3.2 | 3.2 | 0.00 | 0.00 | 0.00 | 84 | 1015.4 |
| 20260507054538 | 17 | 18 | 1.6 | 4.8 | 0.00 | 0.00 | 0.00 | 84 | 1015.4 |
| 20260507053538 | 17 | 26 | 3.2 | 4.8 | 0.00 | 0.00 | 0.00 | 85 | 1015.4 |
| 20260507051538 | 17 | 329 | 8.0 | 16.1 | 0.00 | 0.00 | 0.00 | 85 | 1015.3 |
| 20260507050538 | 17 | 275 | 6.4 | 12.9 | 0.00 | 0.00 | 0.00 | 85 | 1015.3 |
| 20260507045538 | 17 | 308 | 14.5 | 14.5 | 0.00 | 0.00 | 0.00 | 85 | 1015.4 |
| 20260507044538 | 17 | 286 | 4.8 | 14.5 | 0.00 | 0.00 | 0.00 | 85 | 1015.3 |
| 20260507043538 | 17 | 278 | 6.4 | 14.5 | 0.00 | 0.00 | 0.00 | 85 | 1015.2 |
| 20260507042538 | 17 | 306 | 4.8 | 16.1 | 0.00 | 0.00 | 0.00 | 85 | 1015.3 |
| 20260507041538 | 17 | 271 | 12.9 | 16.1 | 0.00 | 0.00 | 0.00 | 85 | 1015.2 |
| 20260507040538 | 17 | 286 | 6.4 | 14.5 | 0.00 | 0.00 | 0.00 | 85 | 1015.2 |
| 20260507033538 | 17 | 287 | 4.8 | 16.1 | 0.00 | 0.00 | 0.00 | 83 | 1014.9 |
| 20260507031538 | 17 | 302 | 9.7 | 16.1 | 0.00 | 0.00 | 0.00 | 84 | 1014.9 |
| 20260507030538 | 17 | 294 | 12.9 | 16.1 | 0.00 | 0.00 | 0.00 | 84 | 1014.9 |
| 20260507025538 | 17 | 290 | 16.1 | 16.1 | 0.00 | 0.00 | 0.00 | 84 | 1014.8 |
| 20260507024538 | 18 | 219 | 4.8 | 14.5 | 0.00 | 0.00 | 0.00 | 83 | 1014.7 |
| 20260507023538 | 18 | 281 | 6.4 | 14.5 | 0.00 | 0.00 | 0.00 | 83 | 1014.7 |
| 20260507021538 | 18 | 336 | 6.4 | 12.9 | 0.00 | 0.00 | 0.00 | 82 | 1014.5 |
| 20260507020538 | 18 | 278 | 12.9 | 12.9 | 0.00 | 0.00 | 0.00 | 82 | 1014.5 |
| 20260507015538 | 18 | 317 | 6.4 | 17.7 | 0.00 | 0.00 | 0.00 | 81 | 1014.4 |
| 20260507014538 | 19 | 286 | 12.9 | 17.7 | 0.00 | 0.00 | 0.00 | 81 | 1014.4 |
| 20260507013538 | 19 | 280 | 12.9 | 16.1 | 0.00 | 0.00 | 0.00 | 81 | 1014.4 |
| 20260507012538 | 19 | 301 | 14.5 | 20.9 | 0.00 | 0.00 | 0.00 | 81 | 1014.4 |
| 20260507005538 | 20 | 298 | 11.3 | 20.9 | 0.00 | 0.00 | 0.00 | 78 | 1014.1 |
| 20260507004538 | 20 | 267 | 12.9 | 20.9 | 0.00 | 0.00 | 0.00 | 76 | 1014.0 |
| 20260507003538 | 20 | 258 | 9.7 | 20.9 | 0.00 | 0.00 | 0.00 | 75 | 1014.1 |
| 20260507002538 | 20 | 268 | 16.1 | 22.5 | 0.00 | 0.00 | 0.00 | 77 | 1014.0 |
| 20260507001538 | 20 | 284 | 17.7 | 22.5 | 0.00 | 0.00 | 0.00 | 78 | 1014.0 |
| 20260507000538 | 20 | 272 | 16.1 | 20.9 | 0.00 | 0.00 | 0.00 | 78 | 1013.9 |
| 20260506234538 | 20 | 290 | 16.1 | 22.5 | 0.00 | 0.00 | 0.00 | 80 | 1013.9 |
| 20260506233538 | 20 | 267 | 19.3 | 22.5 | 0.00 | 0.00 | 0.00 | 79 | 1013.9 |
| 20260506232538 | 20 | 262 | 19.3 | 22.5 | 0.00 | 0.00 | 0.00 | 79 | 1013.9 |
| 20260506231538 | 20 | 286 | 14.5 | 20.9 | 0.00 | 0.00 | 0.00 | 79 | 1014.0 |
| 20260506230538 | 20 | 280 | 9.7 | 19.3 | 0.00 | 0.00 | 0.00 | 79 | 1014.0 |
| 20260506225538 | 20 | 258 | 12.9 | 25.7 | 0.00 | 0.00 | 0.00 | 80 | 1014.2 |
| 20260506224538 | 20 | 316 | 9.7 | 24.1 | 0.00 | 0.00 | 0.00 | 80 | 1014.3 |
| 20260506223538 | 20 | 287 | 16.1 | 24.1 | 0.00 | 0.00 | 0.00 | 79 | 1014.4 |
| 20260506221538 | 20 | 275 | 16.1 | 20.9 | 0.00 | 0.00 | 0.00 | 78 | 1014.6 |
| 20260506220538 | 20 | 273 | 17.7 | 19.3 | 0.00 | 0.00 | 0.00 | 78 | 1014.7 |
| 20260506215538 | 20 | 243 | 19.3 | 25.7 | 0.00 | 0.00 | 0.00 | 78 | 1014.7 |
| 20260506213538 | 20 | 284 | 16.1 | 20.9 | 0.00 | 0.00 | 0.00 | 77 | 1014.9 |
| 20260506212538 | 20 | 313 | 14.5 | 24.1 | 0.00 | 0.00 | 0.00 | 77 | 1015.1 |
| 20260506211538 | 20 | 269 | 16.1 | 24.1 | 0.00 | 0.00 | 0.00 | 78 | 1015.2 |
| 20260506210538 | 20 | 277 | 19.3 | 19.3 | 0.00 | 0.00 | 0.00 | 78 | 1015.2 |
| 20260506205538 | 20 | 275 | 19.3 | 20.9 | 0.00 | 0.00 | 0.00 | 77 | 1015.4 |
| 20260506204538 | 20 | 286 | 16.1 | 20.9 | 0.00 | 0.00 | 0.00 | 77 | 1015.5 |
| 20260506203538 | 20 | 254 | 12.9 | 19.3 | 0.00 | 0.00 | 0.00 | 76 | 1015.4 |
| 20260506202538 | 20 | 279 | 12.9 | 19.3 | 0.00 | 0.00 | 0.00 | 77 | 1015.4 |
| 20260506201538 | 20 | 244 | 16.1 | 19.3 | 0.00 | 0.00 | 0.00 | 78 | 1015.6 |
| 20260506200538 | 20 | 268 | 12.9 | 16.1 | 0.00 | 0.00 | 0.00 | 77 | 1015.7 |
| 20260506195538 | 20 | 263 | 16.1 | 22.5 | 0.00 | 0.00 | 0.00 | 78 | 1015.8 |
| 20260506194538 | 19 | 246 | 12.9 | 22.5 | 0.00 | 0.00 | 0.00 | 79 | 1015.9 |
| 20260506193538 | 19 | 275 | 14.5 | 20.9 | 0.00 | 0.00 | 0.00 | 79 | 1016.0 |
| 20260506192538 | 18 | 270 | 16.1 | 19.3 | 0.00 | 0.00 | 0.00 | 79 | 1016.0 |
| 20260506191538 | 18 | 254 | 16.1 | 17.7 | 0.00 | 0.00 | 0.00 | 78 | 1016.2 |
| 20260506190538 | 19 | 284 | 12.9 | 17.7 | 0.00 | 0.00 | 0.00 | 78 | 1016.3 |
| 20260506185538 | 18 | 275 | 14.5 | 17.7 | 0.00 | 0.00 | 0.00 | 79 | 1016.2 |
| 20260506184538 | 18 | 267 | 14.5 | 16.1 | 0.00 | 0.00 | 0.00 | 77 | 1016.3 |
| 20260506183538 | 18 | 248 | 9.7 | 14.5 | 0.00 | 0.00 | 0.00 | 78 | 1016.5 |